Regional Weather Roundup
Issued by NWS

Home | Current Version | Previous Version | Graphics & Text | Print | Product List | Glossary On
Versions: 1 2 3 4 5 6 7 8 9 10 11 12 13 14 15 16 17 18 19 20 21 22 23 24 25 26 27 28 29 30 31 32 33 34 35 36 37 38 39 40 41 42 43 44 45 46 47 48 49 50
000
ASUS43 KOAX 011302
RWRNE

WEATHER ROUNDUP FOR NEBRASKA
NATIONAL WEATHER SERVICE OMAHA NE
700 AM CST SUN FEB 01 2015

NOTES: SATELLITE DATA IS BEING USED TO AUGMENT CLOUD COVER ABOVE
       12000 FEET.
       "FAIR" INDICATES FEW OR NO CLOUDS BELOW 12,000 FEET WITH NO
       SIGNIFICANT WEATHER AND/OR OBSTRUCTIONS TO VISIBILITY.

  * THESE STATIONS DO NOT REPORT WEATHER SUCH AS RAIN...SNOW OR FOG.

NEZ001>004-019>022-054>056-011400-
NEBRASKA PANHANDLE

CITY           SKY/WX    TMP DP  RH WIND       PRES   REMARKS
SCOTTSBLUFF    CLOUDY    17  12  80 N10       30.16R WCI   5
ALLIANCE       CLOUDY     6   1  80 N15       30.15R WCI -12
CHADRON        LGT SNOW   7   3  84 N7        30.26R FOG     WCI  -5
SIDNEY         CLEAR     13  10  88 N15       30.10R WCI  -3
$$

NEZ057>060-069>072-079>082-011400-
SOUTHWEST NEBRASKA

CITY           SKY/WX    TMP DP  RH WIND       PRES   REMARKS
NORTH PLATTE   CLOUDY    10   3  73 N21G29    30.14R WCI  -9
IMPERIAL       MOCLDY    12   6  77 N22G31    30.14R WCI  -7
MCCOOK         CLOUDY    16   8  71 N26G35    30.12R WCI  -3
$$

NEZ005>010-023>029-035>040-094-011400-
NORTH CENTRAL NEBRASKA

CITY           SKY/WX    TMP DP  RH WIND       PRES   REMARKS
VALENTINE      LGT SNOW   4  -2  76 N22G28    30.23R WCI -18
BROKEN BOW     LGT SNOW   8   3  80 N24G32    30.10R VSB 1   WCI -13
ORD            LGT SNOW   7   1  76 NW28G36   30.11R VSB 3/4 WCI -16
$$

NEZ041-046>049-061>064-073>077-083>087-011400-
SOUTH CENTRAL NEBRASKA

CITY           SKY/WX    TMP DP  RH WIND       PRES   REMARKS
GRAND ISLAND   BLWGSNOW  10   6  84 N35       30.04R VSB 1/2 WCI -13
AURORA         LGT SNOW  12  10  89 N33G40    30.01R VSB 3/4 WCI -10
HASTINGS       SNOW      11   7  84 N36G44    30.01R VSB 1/2 WCI -13
KEARNEY *      CLOUDY    10   7  85 N28G38    30.05R WCI -11
$$

NEZ011>018-030>034-042>045-011400-
NORTHEAST NEBRASKA

CITY           SKY/WX    TMP DP  RH WIND       PRES   REMARKS
NORFOLK        FOG       13   9  84 N30G38    30.03R VSB 1   WCI  -8
ALBION         LGT SNOW   9   4  80 N22G31    30.05R WCI -11
BLAIR          LGT SNOW  26  23  89 N22G30    29.86R WCI  11
TEKAMAH        LGT SNOW  23  20  88 N31G39    29.94R VSB 3/4 WCI   5
$$

NEZ050>053-065>068-078-088>093-011400-
SOUTHEAST NEBRASKA

CITY           SKY/WX    TMP DP  RH WIND       PRES   REMARKS
LINCOLN        LGT SNOW  24  21  88 N30G40    29.90R VSB 3/4 WCI   7
OMAHA EPPLEY   LGT SNOW  27  25  92 N23G31    29.87R VSB 3/4 WCI  12
FALLS CITY     LGT SNOW  32  31  96 NW8       29.76R FOG     WCI  25
$$

NEZ044-045-051>053-067-011400-
OMAHA AREA

CITY           SKY/WX    TMP DP  RH WIND       PRES   REMARKS
OMAHA EPPLEY   LGT SNOW  27  25  92 N23G31    29.87R VSB 3/4 WCI  12
BLAIR          LGT SNOW  26  23  89 N22G30    29.86R WCI  11
OFFUTT AFB     LGT SNOW  28  27  93 N12       29.84R FOG     WCI  18
$$


USA.gov is the U.S. government's official web portal to all federal, state and local government web resources and services.